,,Stat6,,Stat2,,Stat8,,Stat9,,Stat10,,Wind1,,Wind1,
time,status,PA1M_AVG,status,PR1M_SUM,status,RH1M_AVG,status,SR1M_AVG,status,TA1M_AVG,status,W1dAve1m,status,W1sAve1m,
2005-03-02, 07:32:00,VALID,921.628,VALID,0,VALID,94.3861,VALID,1.03923,VALID,20.8171,VALID,114,VALID,0.798761,
2005-03-02, 07:33:00,VALID,921.611,VALID,0,VALID,93.9207,VALID,1.34149,VALID,20.7767,VALID,125,VALID,0.942264,
2005-03-02, 07:34:00,VALID,921.612,VALID,0,VALID,93.4947,VALID,1.81695,VALID,20.7863,VALID,115,VALID,1.35061,
2005-03-02, 07:35:00,VALID,921.634,VALID,0,VALID,92.9225,VALID,2.1226,VALID,20.8214,VALID,111,VALID,1.13114,
2005-03-02, 07:36:00,VALID,921.657,VALID,0,VALID,92.9912,VALID,2.51316,VALID,20.8701,VALID,101,VALID,0.856424,
2005-03-02, 07:37:00,VALID,921.673,VALID,0,VALID,93.5481,VALID,2.69995,VALID,20.8956,VALID,48,VALID,1.05589,
2005-03-02, 07:38:00,VALID,921.666,VALID,0,VALID,93.8915,VALID,2.93768,VALID,20.8534,VALID,27,VALID,1.25977,
2005-03-02, 07:39:00,VALID,921.65,VALID,0,VALID,94.3136,VALID,3.59994,VALID,20.8243,VALID,12,VALID,1.2474,
2005-03-02, 07:41:00,VALID,921.641,VALID,0,VALID,93.7956,VALID,5.29802,VALID,20.758,VALID,25,VALID,1.27209,
2005-03-02, 07:42:00,VALID,921.646,VALID,0,VALID,93.6499,VALID,5.80744,VALID,20.7815,VALID,19,VALID,1.21018,
2005-03-02, 07:43:00,VALID,921.635,VALID,0,VALID,91.4462,VALID,6.48668,VALID,20.7877,VALID,35,VALID,1.82088,
2005-03-02, 07:44:00,VALID,921.664,VALID,0,VALID,90.3628,VALID,7.16591,VALID,20.8752,VALID,14,VALID,1.74721,
2005-03-02, 07:45:00,VALID,921.695,VALID,0,VALID,89.5324,VALID,7.86212,VALID,20.9331,VALID,15,VALID,1.32187,
2005-03-02, 07:46:00,VALID,921.706,VALID,0,VALID,89.5375,VALID,8.57532,VALID,20.9654,VALID,36,VALID,1.13462,
2005-03-02, 07:47:00,VALID,921.723,VALID,0,VALID,89.6964,VALID,9.44134,VALID,20.9587,VALID,18,VALID,1.16548,
2005-03-02, 07:48:00,VALID,921.741,VALID,0,VALID,89.5693,VALID,10.2394,VALID,20.9428,VALID,30,VALID,1.45499,
2005-03-02, 07:50:00,VALID,921.722,VALID,0,VALID,89.4162,VALID,11.9613,VALID,20.8853,VALID,34,VALID,1.67619,
2005-03-02, 07:51:00,VALID,921.736,VALID,0,VALID,87.4215,VALID,12.5149,VALID,20.9167,VALID,28,VALID,2.20141,
2005-03-02, 07:52:00,VALID,921.765,VALID,0,VALID,86.4945,VALID,12.8375,VALID,21.0233,VALID,26,VALID,1.82984,
2005-03-02, 07:53:00,VALID,921.78,VALID,0,VALID,86.9434,VALID,12.7017,VALID,21.0561,VALID,5,VALID,0.915179,
2005-03-02, 07:54:00,VALID,921.819,VALID,0,VALID,87.3707,VALID,12.3111,VALID,21.0556,VALID,34,VALID,0.564062,
2005-03-02, 07:55:00,VALID,921.873,VALID,0,VALID,87.9454,VALID,11.9715,VALID,21.0265,VALID,37,VALID,0.477965,
2005-03-02, 07:56:00,VALID,921.917,VALID,0,VALID,87.8564,VALID,11.6998,VALID,20.9912,VALID,40,VALID,0.451882,
2005-03-02, 08:28:00,VALID,922.451,VALID,0,VALID,83.816,VALID,45.6445,VALID,20.6176,VALID,107,VALID,2.725,
2005-03-02, 08:29:00,VALID,922.437,VALID,0,VALID,83.9615,VALID,46.952,VALID,20.5746,VALID,90,VALID,2.93955,
2005-03-02, 08:30:00,VALID,922.427,VALID,0,VALID,83.9615,VALID,48.4633,VALID,20.5458,VALID,64,VALID,2.3992,
2005-03-02, 08:31:00,VALID,922.413,VALID,0,VALID,83.7873,VALID,50.1274,VALID,20.5329,VALID,92,VALID,2.26905,
2005-03-02, 08:32:00,VALID,922.44,VALID,0,VALID,83.1795,VALID,51.9783,VALID,20.5264,VALID,96,VALID,2.70188,
2005-03-02, 08:33:00,VALID,922.464,VALID,0,VALID,83.8572,VALID,54.2368,VALID,20.5485,VALID,82,VALID,2.41388,
2005-03-02, 08:34:00,VALID,922.495,VALID,0,VALID,83.3549,VALID,56.9197,VALID,20.5323,VALID,71,VALID,2.43466,
2005-03-02, 08:35:00,VALID,922.506,VALID,0,VALID,83.7161,VALID,59.8574,VALID,20.5353,VALID,82,VALID,2.61923,
2005-03-02, 08:36:00,VALID,922.525,VALID,0,VALID,83.9971,VALID,63.0159,VALID,20.4804,VALID,81,VALID,2.54651,
2005-03-02, 08:37:00,VALID,922.545,VALID,0,VALID,84.2324,VALID,66.3101,VALID,20.4099,VALID,72,VALID,2.36435,
2005-03-02, 08:38:00,VALID,922.542,VALID,0,VALID,84.268,VALID,69.2818,VALID,20.351,VALID,64,VALID,2.24107,
2005-03-02, 08:39:00,VALID,922.552,VALID,0,VALID,84.3532,VALID,72.1346,VALID,20.3386,VALID,78,VALID,2.29873,
2005-03-02, 08:40:00,VALID,922.565,VALID,0,VALID,84.713,VALID,74.8515,VALID,20.3227,VALID,73,VALID,2.55632,
2005-03-02, 08:41:00,VALID,922.595,VALID,0,VALID,84.638,VALID,77.6703,VALID,20.2969,VALID,79,VALID,2.43003,
2005-03-02, 08:42:00,VALID,922.614,VALID,0,VALID,84.2845,VALID,80.591,VALID,20.2936,VALID,71,VALID,2.86646,
2005-03-02, 08:43:00,VALID,922.616,VALID,0,VALID,83.9526,VALID,83.6306,VALID,20.2802,VALID,78,VALID,2.70666,
2005-03-02, 08:44:00,VALID,922.63,VALID,0,VALID,84.6698,VALID,87.0098,VALID,20.2931,VALID,66,VALID,2.48177,
2005-03-02, 08:45:00,VALID,922.655,VALID,0,VALID,85.1695,VALID,90.6946,VALID,20.2797,VALID,77,VALID,1.80959,
2005-03-02, 08:46:00,VALID,922.659,VALID,0,VALID,85.7316,VALID,94.1078,VALID,20.2611,VALID,63,VALID,1.91992,
2005-03-02, 08:47:00,VALID,922.685,VALID,0,VALID,85.1403,VALID,97.3002,VALID,20.235,VALID,71,VALID,2.07715,
2005-03-02, 08:48:00,VALID,922.69,VALID,0,VALID,84.8923,VALID,100.747,VALID,20.2477,VALID,80,VALID,2.19495,
2005-03-02, 08:49:00,VALID,922.692,VALID,0,VALID,84.8516,VALID,104.262,VALID,20.2869,VALID,78,VALID,2.0726,
2005-03-02, 08:50:00,VALID,922.69,VALID,0,VALID,84.8326,VALID,108.219,VALID,20.3127,VALID,86,VALID,2.15825,
2005-03-02, 08:51:00,VALID,922.698,VALID,0,VALID,84.2387,VALID,111.802,VALID,20.3443,VALID,105,VALID,1.61235,
2005-03-02, 08:52:00,VALID,922.7,VALID,0,VALID,83.875,VALID,114.621,VALID,20.4258,VALID,75,VALID,2.03161,
2005-03-02, 08:53:00,VALID,922.723,VALID,0,VALID,84.418,VALID,117.202,VALID,20.4742,VALID,82,VALID,2.02024,
2005-03-02, 08:54:00,VALID,922.728,VALID,0,VALID,83.8572,VALID,119.273,VALID,20.4737,VALID,92,VALID,2.06269,
2005-03-02, 08:55:00,VALID,922.757,VALID,0,VALID,84.2807,VALID,121.311,VALID,20.4898,VALID,86,VALID,2.22061,
2005-03-02, 08:56:00,VALID,922.768,VALID,0,VALID,84.287,VALID,123.009,VALID,20.4941,VALID,79,VALID,2.06027,
2005-03-02, 08:57:00,VALID,922.819,VALID,0,VALID,84.6189,VALID,123.111,VALID,20.496,VALID,77,VALID,1.79046,
2005-03-02, 08:58:00,VALID,922.834,VALID,0,VALID,84.4892,VALID,123.977,VALID,20.5095,VALID,89,VALID,2.19931,
2005-03-02, 08:59:00,VALID,922.858,VALID,0,VALID,84.6876,VALID,126.405,VALID,20.5192,VALID,126,VALID,1.73492,
2005-03-02, 09:00:00,VALID,922.873,VALID,0,VALID,84.7715,VALID,127.526,VALID,20.5423,VALID,115,VALID,1.78252,
2005-03-02, 09:01:00,VALID,922.91,VALID,0,VALID,85.3374,VALID,128.494,VALID,20.545,VALID,108,VALID,1.52268,
2005-03-02, 09:02:00,VALID,922.94,VALID,0,VALID,85.0716,VALID,129.207,VALID,20.5509,VALID,96,VALID,1.47489,
2005-03-02, 09:03:00,VALID,922.994,VALID,0,VALID,84.6037,VALID,129.547,VALID,20.587,VALID,86,VALID,1.75291,
2005-03-02, 09:04:00,VALID,923.038,VALID,0,VALID,84.6227,VALID,130.022,VALID,20.6257,VALID,89,VALID,2.11644,
2005-03-02, 09:05:00,VALID,923.077,VALID,0,VALID,84.2451,VALID,129.581,VALID,20.6483,VALID,96,VALID,1.98928,
2005-03-02, 09:06:00,VALID,923.112,VALID,0,VALID,84.0327,VALID,129.801,VALID,20.6642,VALID,92,VALID,2.55033,
2005-03-02, 09:07:00,VALID,923.138,VALID,0,VALID,83.636,VALID,130.718,VALID,20.6675,VALID,91,VALID,2.64844,
2005-03-02, 09:08:00,VALID,923.182,VALID,0,VALID,83.9272,VALID,130.226,VALID,20.6677,VALID,79,VALID,2.36998,
2005-03-02, 09:09:00,VALID,923.216,VALID,0,VALID,84.198,VALID,130.684,VALID,20.658,VALID,110,VALID,2.07483,
2005-03-02, 09:10:00,VALID,923.216,VALID,0,VALID,83.6945,VALID,130.922,VALID,20.6642,VALID,91,VALID,2.21236,
2005-03-02, 09:11:00,VALID,923.24,VALID,0,VALID,83.4414,VALID,133.758,VALID,20.6799,VALID,103,VALID,2.07066,
2005-03-02, 09:12:00,VALID,923.262,VALID,0,VALID,84.8033,VALID,138.122,VALID,20.7221,VALID,89,VALID,2.18118,
2005-03-02, 09:13:00,VALID,923.259,VALID,0,VALID,83.8928,VALID,140.262,VALID,20.7087,VALID,108,VALID,2.37016,
2005-03-02, 09:14:00,VALID,923.264,VALID,0,VALID,83.7682,VALID,140.465,VALID,20.7288,VALID,106,VALID,2.41518,
2005-03-02, 09:15:00,VALID,923.305,VALID,0,VALID,83.3473,VALID,144.303,VALID,20.7439,VALID,99,VALID,2.13481,
2005-03-02, 09:16:00,VALID,923.307,VALID,0,VALID,83.2074,VALID,145.95,VALID,20.7959,VALID,57,VALID,2.37926,
2005-03-02, 09:17:00,VALID,923.318,VALID,0,VALID,83.3918,VALID,145.118,VALID,20.8378,VALID,93,VALID,2.41871,
2005-03-02, 09:18:00,VALID,923.34,VALID,0,VALID,83.6627,VALID,147.326,VALID,20.8516,VALID,116,VALID,1.78073,
2005-03-02, 09:19:00,VALID,923.355,VALID,0,VALID,83.9653,VALID,144.846,VALID,20.851,VALID,91,VALID,1.99878,
2005-03-02, 09:20:00,VALID,923.386,VALID,0,VALID,83.2774,VALID,143.828,VALID,20.8378,VALID,82,VALID,2.10458,
2005-03-02, 09:21:00,VALID,923.424,VALID,0,VALID,82.8323,VALID,147.292,VALID,20.8349,VALID,121,VALID,1.6766,
2005-03-02, 09:22:00,VALID,923.453,VALID,0,VALID,83.1222,VALID,148.209,VALID,20.8701,VALID,72,VALID,2.40838,
2005-03-02, 09:23:00,VALID,923.474,VALID,0,VALID,83.0332,VALID,150.433,VALID,20.8839,VALID,84,VALID,2.85047,
2005-03-02, 09:24:00,VALID,923.494,VALID,0,VALID,82.4597,VALID,165.003,VALID,20.8766,VALID,82,VALID,2.58854,
2005-03-02, 09:25:00,VALID,923.482,VALID,0,VALID,82.2817,VALID,167.278,VALID,20.9293,VALID,94,VALID,2.47584,
2005-03-02, 09:26:00,VALID,923.479,VALID,0,VALID,82.2474,VALID,164.137,VALID,20.9541,VALID,123,VALID,2.76079,
2005-03-02, 09:27:00,VALID,923.499,VALID,0,VALID,81.8773,VALID,169.961,VALID,20.9703,VALID,102,VALID,2.71596,
2005-03-02, 09:28:00,VALID,923.548,VALID,0,VALID,82.6861,VALID,169.655,VALID,20.9837,VALID,97,VALID,2.83648,
2005-03-02, 09:29:00,VALID,923.561,VALID,0,VALID,82.8082,VALID,167.872,VALID,20.9738,VALID,85,VALID,2.77162,
2005-03-02, 09:30:00,VALID,923.565,VALID,0,VALID,83.9526,VALID,179.929,VALID,20.9802,VALID,82,VALID,2.01672,
2005-03-02, 09:31:00,VALID,923.545,VALID,0,VALID,82.756,VALID,181.152,VALID,20.9579,VALID,101,VALID,2.85957,
2005-03-02, 09:32:00,VALID,923.529,VALID,0,VALID,82.6251,VALID,172.916,VALID,20.9606,VALID,90,VALID,2.65123,
2005-03-02, 09:33:00,VALID,923.563,VALID,0,VALID,82.9875,VALID,168.62,VALID,20.9705,VALID,90,VALID,2.6434,
2005-03-02, 09:34:00,VALID,923.578,VALID,0,VALID,83.3333,VALID,165.427,VALID,20.9643,VALID,88,VALID,2.29018,
2005-03-02, 09:35:00,VALID,923.572,VALID,0,VALID,83.9869,VALID,169.961,VALID,20.9711,VALID,87,VALID,2.34702,
2005-03-02, 09:36:00,VALID,923.594,VALID,0,VALID,83.7428,VALID,178.944,VALID,20.9606,VALID,87,VALID,2.61179,
2005-03-02, 09:37:00,VALID,923.627,VALID,0,VALID,83.8051,VALID,182.985,VALID,20.9837,VALID,88,VALID,1.88228,
2005-03-02, 09:38:00,VALID,923.616,VALID,0,VALID,84.3036,VALID,221.447,VALID,21.0187,VALID,69,VALID,1.64732,
2005-03-02, 09:39:00,VALID,923.619,VALID,0,VALID,82.742,VALID,217.066,VALID,21.0612,VALID,71,VALID,2.95871,
2005-03-02, 09:40:00,VALID,923.624,VALID,0,VALID,82.4941,VALID,192.172,VALID,21.1132,VALID,60,VALID,2.74492,
2005-03-02, 09:41:00,VALID,923.658,VALID,0,VALID,83.0828,VALID,185.227,VALID,21.1318,VALID,70,VALID,1.76296,
2005-03-02, 09:42:00,VALID,923.691,VALID,0,VALID,83.1108,VALID,186.025,VALID,21.1352,VALID,76,VALID,2.20676,
2005-03-02, 09:43:00,VALID,923.704,VALID,0,VALID,83.6919,VALID,208.304,VALID,21.1385,VALID,71,VALID,2.14116,
2005-03-02, 09:44:00,VALID,923.726,VALID,0,VALID,82.5386,VALID,173.714,VALID,21.1382,VALID,88,VALID,2.66053,
2005-03-02, 09:45:00,VALID,923.751,VALID,0,VALID,82.3771,VALID,164.986,VALID,21.1573,VALID,100,VALID,2.56882,
2005-03-02, 09:46:00,VALID,923.775,VALID,0,VALID,81.211,VALID,177.653,VALID,21.1705,VALID,87,VALID,3.36833,
2005-03-02, 09:47:00,VALID,923.78,VALID,0,VALID,80.7914,VALID,174.495,VALID,21.2052,VALID,87,VALID,2.2504,
2005-03-02, 09:48:00,VALID,923.803,VALID,0,VALID,81.9257,VALID,151.078,VALID,21.2513,VALID,98,VALID,2.20294,
2005-03-02, 09:49:00,VALID,923.82,VALID,0,VALID,82.1584,VALID,145.746,VALID,21.2577,VALID,125,VALID,2.54647,
2005-03-02, 09:50:00,VALID,923.862,VALID,0,VALID,81.6637,VALID,139.141,VALID,21.2513,VALID,109,VALID,2.5348,
2005-03-02, 09:51:00,VALID,923.898,VALID,0,VALID,82.7713,VALID,132.501,VALID,21.2712,VALID,83,VALID,1.33389,
2005-03-02, 09:52:00,VALID,923.929,VALID,0,VALID,82.0236,VALID,131.618,VALID,21.2609,VALID,94,VALID,2.07156,
2005-03-02, 09:53:00,VALID,923.947,VALID,0,VALID,82.1571,VALID,130.583,VALID,21.251,VALID,80,VALID,1.81232,
2005-03-02, 09:54:00,VALID,923.965,VALID,0,VALID,82.4229,VALID,124.486,VALID,21.2319,VALID,99,VALID,1.72656,
2005-03-02, 09:55:00,VALID,923.988,VALID,0,VALID,82.0566,VALID,129.088,VALID,21.2381,VALID,80,VALID,1.99112,
2005-03-02, 09:56:00,VALID,924.003,VALID,0,VALID,82.3288,VALID,158.533,VALID,21.2278,VALID,58,VALID,2.20465,
2005-03-02, 09:57:00,VALID,924.029,VALID,0,VALID,81.3382,VALID,182.306,VALID,21.2542,VALID,63,VALID,1.74746,
2005-03-02, 09:58:00,VALID,924.066,VALID,0,VALID,82.105,VALID,171.235,VALID,21.2766,VALID,111,VALID,2.0343,
2005-03-02, 09:59:00,VALID,924.064,VALID,0,VALID,82.503,VALID,140.126,VALID,21.2897,VALID,128,VALID,1.56029,
2005-03-02, 10:00:00,VALID,924.076,VALID,0,VALID,83.4923,VALID,117.066,VALID,21.2927,VALID,125,VALID,1.54542,
2005-03-02, 10:01:00,VALID,924.086,VALID,0,VALID,82.7077,VALID,107.472,VALID,21.2895,VALID,153,VALID,0.807292,
2005-03-02, 10:02:00,VALID,924.104,VALID,0,VALID,82.7497,VALID,100.934,VALID,21.2897,VALID,116,VALID,1.88837,
2005-03-02, 10:03:00,VALID,924.11,VALID,0,VALID,83.1286,VALID,101.868,VALID,21.2766,VALID,127,VALID,1.8581,
2005-03-02, 10:04:00,VALID,924.131,VALID,0,VALID,82.6251,VALID,102.479,VALID,21.2607,VALID,112,VALID,2.51395,
2005-03-02, 10:05:00,VALID,924.117,VALID,0,VALID,83.3842,VALID,95.8398,VALID,21.2348,VALID,115,VALID,1.67596,
2005-03-02, 10:06:00,VALID,924.127,VALID,0,VALID,83.772,VALID,98.2341,VALID,21.2251,VALID,112,VALID,1.32943,
2005-03-02, 10:07:00,VALID,924.136,VALID,0,VALID,83.9641,VALID,92.4267,VALID,21.1923,VALID,111,VALID,1.64364,
2005-03-02, 10:08:00,VALID,924.14,VALID,0,VALID,83.6703,VALID,74.9364,VALID,21.1764,VALID,105,VALID,0.970203,
2005-03-02, 10:09:00,VALID,924.167,VALID,0,VALID,83.8267,VALID,62.5404,VALID,21.1474,VALID,56,VALID,1.75279,
2005-03-02, 10:10:00,VALID,924.178,VALID,0,VALID,83.065,VALID,56.8858,VALID,21.111,VALID,77,VALID,1.8842,
2005-03-02, 10:11:00,VALID,924.211,VALID,0,VALID,83.5241,VALID,56.2066,VALID,21.0917,VALID,87,VALID,1.37624,
2005-03-02, 10:12:00,VALID,924.216,VALID,0,VALID,84.5795,VALID,59.2971,VALID,21.0691,VALID,73,VALID,1.71596,
2005-03-02, 10:13:00,VALID,924.236,VALID,0,VALID,84.6571,VALID,61.165,VALID,21.0201,VALID,109,VALID,2.15472,
2005-03-02, 10:14:00,VALID,924.267,VALID,0,VALID,84.5019,VALID,55.5273,VALID,20.995,VALID,87,VALID,1.67823,
2005-03-02, 10:15:00,VALID,924.265,VALID,0,VALID,85.2496,VALID,48.5822,VALID,20.9703,VALID,59,VALID,1.29074,
2005-03-02, 10:16:00,VALID,924.291,VALID,0,VALID,84.6215,VALID,42.3672,VALID,20.9305,VALID,86,VALID,1.69265,
2005-03-02, 10:17:00,VALID,924.309,VALID,0,VALID,84.6901,VALID,38.3937,VALID,20.9044,VALID,88,VALID,1.74077,
2005-03-02, 10:18:00,VALID,924.302,VALID,0,VALID,85.4645,VALID,37.0692,VALID,20.8882,VALID,73,VALID,1.70499,
2005-03-02, 10:19:00,VALID,924.316,VALID,0,VALID,84.5096,VALID,37.7144,VALID,20.8564,VALID,77,VALID,2.45703,
2005-03-02, 10:20:00,VALID,924.264,VALID,0,VALID,84.3176,VALID,37.3408,VALID,20.8465,VALID,47,VALID,3.82031,
2005-03-02, 10:21:00,VALID,924.272,VALID,0,VALID,83.9971,VALID,36.322,VALID,20.8855,VALID,52,VALID,2.73996,
2005-03-02, 10:22:00,VALID,924.278,VALID,0,VALID,84.8186,VALID,34.8277,VALID,20.879,VALID,62,VALID,2.30525,
2005-03-02, 10:23:00,VALID,924.277,VALID,0,VALID,85.1237,VALID,35.3201,VALID,20.8239,VALID,65,VALID,2.75999,
2005-03-02, 10:24:00,VALID,924.279,VALID,0,VALID,85.2255,VALID,36.5258,VALID,20.7857,VALID,68,VALID,2.4613,
2005-03-02, 10:25:00,VALID,924.295,VALID,0,VALID,84.9228,VALID,37.2559,VALID,20.7528,VALID,118,VALID,1.97204,
2005-03-02, 10:26:00,VALID,924.277,VALID,0,VALID,85.2407,VALID,38.2408,VALID,20.7558,VALID,88,VALID,2.04135,
2005-03-02, 10:27:00,VALID,924.247,VALID,0,VALID,85.3081,VALID,41.0087,VALID,20.7561,VALID,53,VALID,2.34583,
2005-03-02, 10:28:00,VALID,924.273,VALID,0,VALID,85.6655,VALID,47.9369,VALID,20.7534,VALID,69,VALID,2.13154,
2005-03-02, 10:29:00,VALID,924.281,VALID,0,VALID,85.9935,VALID,59.382,VALID,20.7176,VALID,67,VALID,2.21271,
2005-03-02, 10:30:00,VALID,924.297,VALID,0,VALID,86.1194,VALID,69.3837,VALID,20.6977,VALID,68,VALID,2.75419,
2005-03-02, 10:31:00,VALID,924.283,VALID,0,VALID,85.2954,VALID,85.6173,VALID,20.6979,VALID,21,VALID,2.74905,
2005-03-02, 10:32:00,VALID,924.312,VALID,0,VALID,84.7016,VALID,104.364,VALID,20.7787,VALID,68,VALID,1.69511,
2005-03-02, 10:33:00,VALID,924.305,VALID,0,VALID,84.6227,VALID,119.715,VALID,20.8502,VALID,82,VALID,2.60547,
2005-03-02, 10:34:00,VALID,924.306,VALID,0,VALID,84.9063,VALID,145.424,VALID,20.8659,VALID,54,VALID,2.53468,
2005-03-02, 10:35:00,VALID,924.296,VALID,0,VALID,84.2018,VALID,181.95,VALID,20.9081,VALID,70,VALID,3.04851,
2005-03-02, 10:36:00,VALID,924.273,VALID,0,VALID,83.2202,VALID,206.113,VALID,20.9722,VALID,66,VALID,3.17764,
2005-03-02, 10:37:00,VALID,924.235,VALID,0,VALID,83.6169,VALID,210.206,VALID,21.0731,VALID,33,VALID,3.8165,
2005-03-02, 10:38:00,VALID,924.251,VALID,0,VALID,81.6459,VALID,196.23,VALID,21.1662,VALID,42,VALID,3.29179,
2005-03-02, 10:39:00,VALID,924.27,VALID,0,VALID,82.1571,VALID,211.666,VALID,21.2564,VALID,50,VALID,2.1605,
2005-03-02, 10:40:00,VALID,924.26,VALID,0,VALID,82.8183,VALID,240.398,VALID,21.3344,VALID,70,VALID,1.07031,
2005-03-02, 10:41:00,VALID,924.242,VALID,0,VALID,81.8901,VALID,244.133,VALID,21.3826,VALID,59,VALID,1.95406,
2005-03-02, 10:42:00,VALID,924.257,VALID,0,VALID,81.4514,VALID,273.867,VALID,21.4313,VALID,114,VALID,2.08708,
2005-03-02, 10:43:00,VALID,924.255,VALID,0,VALID,81.5416,VALID,294.787,VALID,21.507,VALID,63,VALID,1.99089,
2005-03-02, 10:44:00,VALID,924.285,VALID,0,VALID,82.1685,VALID,271.065,VALID,21.591,VALID,62,VALID,1.73251,
2005-03-02, 10:45:00,VALID,924.274,VALID,0,VALID,80.8702,VALID,274.58,VALID,21.655,VALID,84,VALID,1.66946,
2005-03-02, 10:46:00,VALID,924.267,VALID,0,VALID,80.2128,VALID,294.227,VALID,21.7035,VALID,73,VALID,2.19103,
2005-03-02, 10:47:00,VALID,924.262,VALID,0,VALID,80.195,VALID,294.448,VALID,21.7035,VALID,62,VALID,2.35174,
2005-03-02, 10:48:00,VALID,924.268,VALID,0,VALID,80.546,VALID,290.287,VALID,21.7449,VALID,45,VALID,2.30487,
2005-03-02, 10:49:00,VALID,924.289,VALID,0,VALID,78.5356,VALID,299.423,VALID,21.7807,VALID,61,VALID,2.43045,
2005-03-02, 10:50:00,VALID,924.321,VALID,0,VALID,78.6411,VALID,320.208,VALID,21.8389,VALID,81,VALID,1.88743,
2005-03-02, 10:51:00,VALID,924.332,VALID,0,VALID,79.2451,VALID,320.802,VALID,21.8973,VALID,95,VALID,1.56341,
2005-03-02, 10:52:00,VALID,924.333,VALID,0,VALID,79.6673,VALID,309.815,VALID,21.949,VALID,85,VALID,1.78086,
2005-03-02, 10:53:00,VALID,924.321,VALID,0,VALID,78.3003,VALID,288.759,VALID,21.9681,VALID,76,VALID,1.8842,
2005-03-02, 10:54:00,VALID,924.309,VALID,0,VALID,78.2736,VALID,254.56,VALID,21.9614,VALID,80,VALID,1.92769,
2005-03-02, 10:55:00,VALID,924.324,VALID,0,VALID,77.5043,VALID,224.436,VALID,21.9388,VALID,102,VALID,2.12789,
2005-03-02, 10:56:00,VALID,924.343,VALID,0,VALID,76.9143,VALID,201.715,VALID,21.9194,VALID,95,VALID,1.79615,
2005-03-02, 10:57:00,VALID,924.322,VALID,0,VALID,78.0422,VALID,205.994,VALID,21.8994,VALID,89,VALID,2.58873,
2005-03-02, 10:58:00,VALID,924.315,VALID,0,VALID,78.9221,VALID,239.464,VALID,21.8442,VALID,66,VALID,2.6769,
2005-03-02, 10:59:00,VALID,924.326,VALID,0,VALID,79.7385,VALID,263.559,VALID,21.8152,VALID,80,VALID,2.02592,
2005-03-02, 11:00:00,VALID,924.303,VALID,0,VALID,77.8349,VALID,270.81,VALID,21.7955,VALID,79,VALID,1.69812,
2005-03-02, 11:01:00,VALID,924.286,VALID,0,VALID,78.7123,VALID,272.305,VALID,21.8383,VALID,100,VALID,2.51181,
2005-03-02, 11:02:00,VALID,924.296,VALID,0,VALID,79.2769,VALID,268.688,VALID,21.8504,VALID,108,VALID,1.43026,
2005-03-02, 11:03:00,VALID,924.307,VALID,0,VALID,78.781,VALID,263.152,VALID,21.9153,VALID,107,VALID,1.91868,
2005-03-02, 11:04:00,VALID,924.316,VALID,0,VALID,79.0073,VALID,253.354,VALID,21.9508,VALID,74,VALID,1.48928,
2005-03-02, 11:05:00,VALID,924.326,VALID,0,VALID,78.753,VALID,277.042,VALID,21.9737,VALID,73,VALID,1.82578,
2005-03-02, 11:06:00,VALID,924.325,VALID,0,VALID,77.6976,VALID,303.346,VALID,21.9896,VALID,100,VALID,1.95908,
2005-03-02, 11:07:00,VALID,924.334,VALID,0,VALID,76.4946,VALID,303.023,VALID,21.9923,VALID,105,VALID,2.50098,
2005-03-02, 11:08:00,VALID,924.348,VALID,0,VALID,76.4692,VALID,356.784,VALID,22.0184,VALID,90,VALID,1.51277,
2005-03-02, 11:09:00,VALID,924.34,VALID,0,VALID,76.9016,VALID,347.377,VALID,22.0965,VALID,95,VALID,1.17283,
2005-03-02, 11:10:00,VALID,924.318,VALID,0,VALID,75.8766,VALID,332.587,VALID,22.1667,VALID,101,VALID,1.8936,
2005-03-02, 11:11:00,VALID,924.295,VALID,0,VALID,75.4138,VALID,325.658,VALID,22.1864,VALID,106,VALID,2.39844,
2005-03-02, 11:12:00,VALID,924.271,VALID,0,VALID,74.1384,VALID,338.598,VALID,22.1829,VALID,90,VALID,2.39082,
2005-03-02, 11:13:00,VALID,924.268,VALID,0,VALID,76,VALID,341.281,VALID,22.1891,VALID,64,VALID,1.31432,
2005-03-02, 11:14:00,VALID,924.259,VALID,0,VALID,77.9074,VALID,377.144,VALID,22.3021,VALID,37,VALID,1.75018,
2005-03-02, 11:15:00,VALID,924.24,VALID,0,VALID,76.9054,VALID,379.657,VALID,22.4437,VALID,83,VALID,1.11719,
2005-03-02, 11:16:00,VALID,924.24,VALID,0,VALID,77.5043,VALID,511.378,VALID,22.615,VALID,80,VALID,1.47351,
2005-03-02, 11:17:00,VALID,924.216,VALID,0,VALID,77.6772,VALID,562.592,VALID,22.7189,VALID,39,VALID,2.06973,
2005-03-02, 11:18:00,VALID,924.22,VALID,0,VALID,76.8545,VALID,392.665,VALID,22.8673,VALID,46,VALID,1.61337,
2005-03-02, 11:19:00,VALID,924.221,VALID,0,VALID,76.0331,VALID,338.802,VALID,22.9572,VALID,72,VALID,1.74964,
2005-03-02, 11:20:00,VALID,924.212,VALID,0,VALID,76.7541,VALID,354.662,VALID,22.9669,VALID,75,VALID,2.02592,
2005-03-02, 11:21:00,VALID,924.199,VALID,0,VALID,72.9698,VALID,333.571,VALID,22.8702,VALID,77,VALID,3.28557,
2005-03-02, 11:22:00,VALID,924.19,VALID,0,VALID,73.28,VALID,321.719,VALID,22.689,VALID,63,VALID,1.54173,
2005-03-02, 11:23:00,VALID,924.19,VALID,0,VALID,73.3105,VALID,326.185,VALID,22.6896,VALID,94,VALID,1.40644,
2005-03-02, 11:24:00,VALID,924.147,VALID,0,VALID,73.9489,VALID,314.383,VALID,22.6693,VALID,70,VALID,2.59666,
2005-03-02, 11:25:00,VALID,924.161,VALID,0,VALID,76.0559,VALID,308.015,VALID,22.5621,VALID,56,VALID,2.8006,
2005-03-02, 11:26:00,VALID,924.137,VALID,0,VALID,73.6361,VALID,292.206,VALID,22.5204,VALID,31,VALID,2.15057,
2005-03-02, 11:27:00,VALID,924.174,VALID,0,VALID,74.3622,VALID,301.783,VALID,22.5885,VALID,104,VALID,1.42878,
2005-03-02, 11:28:00,VALID,924.149,VALID,0,VALID,75.8639,VALID,326.202,VALID,22.6305,VALID,128,VALID,2.02569,
2005-03-02, 11:29:00,VALID,924.132,VALID,0,VALID,75.546,VALID,319.749,VALID,22.6235,VALID,72,VALID,2.85194,
2005-03-02, 11:30:00,VALID,924.098,VALID,0,VALID,74.928,VALID,378.384,VALID,22.556,VALID,59,VALID,2.89566,
2005-03-02, 11:31:00,VALID,924.101,VALID,0,VALID,76.1704,VALID,393.497,VALID,22.5295,VALID,102,VALID,3.63477,
2005-03-02, 11:32:00,VALID,924.098,VALID,0,VALID,75.19,VALID,389.184,VALID,22.5069,VALID,94,VALID,3.80618,
2005-03-02, 11:33:00,VALID,924.059,VALID,0,VALID,76.3268,VALID,464.239,VALID,22.5005,VALID,75,VALID,2.59727,
2005-03-02, 11:34:00,VALID,924.078,VALID,0,VALID,76.3293,VALID,719.546,VALID,22.5707,VALID,63,VALID,3.36097,
2005-03-02, 11:35:00,VALID,924.015,VALID,0,VALID,74.6025,VALID,495.535,VALID,22.6494,VALID,57,VALID,4.64492,
2005-03-02, 11:36:00,VALID,924.076,VALID,0,VALID,74.7831,VALID,370.182,VALID,22.6229,VALID,72,VALID,3.6436,
2005-03-02, 11:37:00,VALID,924.104,VALID,0,VALID,76.248,VALID,384.31,VALID,22.6138,VALID,59,VALID,3.8492,
2005-03-02, 11:38:00,VALID,924.103,VALID,0,VALID,74.8085,VALID,381.372,VALID,22.5845,VALID,56,VALID,2.84878,
2005-03-02, 11:39:00,VALID,924.102,VALID,0,VALID,76.4374,VALID,382.68,VALID,22.6582,VALID,27,VALID,2.4541,
2005-03-02, 11:40:00,VALID,924.071,VALID,0,VALID,74.633,VALID,382.357,VALID,22.788,VALID,36,VALID,3.79802,
2005-03-02, 11:41:00,VALID,924.045,VALID,0,VALID,74.3049,VALID,390.033,VALID,22.7325,VALID,31,VALID,4.57631,